Skip to main content Skip to accessibility
This website is not compatible with your web browser. You should install a newer browser. If you live in Jersey and need help upgrading call the States of Jersey web team on 440099.
Homegov.je

L'înformâtion et les sèrvices publyis pouor I'Île dé Jèrri

  • Choose the service you want to log in to:

  • gov.je

    Update your notification preferences

  • one.gov.je

    Access government and parish services

  • CAESAR

    Clear goods through customs or claim relief

  • Talentlink

    View or update your States of Jersey job application

CI Airfield TAFs

JERSEY - EGJJ

EGJJ 220459Z 2206/2215 15004KT 9999 FEW015 SCT045 PROB30 TEMPO 2206/2211 9000 SHRA BKN012 PROB30 TEMPO 2206/2210 4000 BR BKN005=

GUERNSEY - EGJB

EGJB 220459Z 2206/2215 15003KT 9999 FEW016 SCT045 PROB40 TEMPO 2206/2211 9000 SHRA BKN012=

ALDERNEY - EGJA

EGJA 220645Z 2206/2215 15005KT 9999 FEW015 SCT020 PROB40 TEMPO 2206/2211 9000 SHRA BKN015 PROB30 TEMPO 2206/2210 5000 BR BKN005=

Back to top
rating button